FALCON 9 DEB (48699 NORAD) Tracking and Keplerian Element Data

This shows tracking and keplerian element data for the satellite.

Feedback or suggestion? Click here.




ElementValue
Catalog48699
NameFALCON 9 DEB
Epoch Orbit542
Epoch Day180.4008679
Epoch Year2021
RAAN249.8983
Inclination53.0376
Eccentricity0.0006431
Argument of Perigee306.2813
Mean Anonmoly53.7643
Mean Motion16.49819345
Decay Rate0.11854083
L11 48699U 21044BP 21180.40086790 .11854083 12699-4 13456-3 0 9996
L22 48699 53.0376 249.8983 0006431 306.2813 53.7643 16.49819345 5421

Live tracking and technical data element details for FALCON 9 DEB (NORAD 48699). FALCON 9 DEB can be tracked NOW for your location showing map with azimuth and elevation plus other details from your city location.

Track the satellite on the map from your city or location and see movement details for azimuth, elevation, latitude, longitude, range, height, and movement on the map or in text.







IsCatalogInMostPopularTable: catalog: 48699, numindb: 18
Update: records affected: 1



GetName: 48699 FALCON 9 DEB

Hit Count: updated at: Tue, 03 Aug 2021 20:21:26 GMT